TimeCDT,TemperatureF,Dew PointF,Humidity,Sea Level PressureIn,VisibilityMPH,Wind Direction,Wind SpeedMPH,Gust SpeedMPH,PrecipitationIn,Events,Conditions,WindDirDegrees,DateUTC
12:24 AM,24.8,17.6,74,30.20,10.0,North,9.2,-,N/A,,Scattered Clouds,360,2013-03-17 05:24:00
12:53 AM,25.0,18.0,75,30.22,10.0,North,11.5,-,N/A,,Mostly Cloudy,360,2013-03-17 05:53:00
1:53 AM,24.1,18.0,77,30.20,10.0,North,11.5,-,N/A,,Scattered Clouds,350,2013-03-17 06:53:00
2:53 AM,23.0,18.0,81,30.19,10.0,North,11.5,-,N/A,,Scattered Clouds,360,2013-03-17 07:53:00
3:53 AM,21.9,17.1,82,30.17,10.0,NNE,15.0,-,N/A,,Clear,20,2013-03-17 08:53:00
4:53 AM,21.0,15.1,78,30.16,10.0,NE,13.8,-,N/A,,Clear,40,2013-03-17 09:53:00
5:53 AM,19.9,15.1,81,30.17,10.0,NE,10.4,-,N/A,,Partly Cloudy,50,2013-03-17 10:53:00
6:53 AM,19.9,15.1,81,30.19,10.0,ENE,8.1,-,N/A,,Partly Cloudy,70,2013-03-17 11:53:00
7:53 AM,19.9,14.0,78,30.19,10.0,ENE,8.1,-,N/A,,Clear,70,2013-03-17 12:53:00
8:53 AM,21.9,15.1,75,30.19,10.0,East,10.4,-,N/A,,Clear,80,2013-03-17 13:53:00
9:53 AM,25.0,17.1,72,30.18,10.0,East,10.4,-,N/A,,Clear,90,2013-03-17 14:53:00
10:53 AM,27.0,18.0,69,30.16,10.0,SE,11.5,20.7,N/A,,Partly Cloudy,140,2013-03-17 15:53:00
11:53 AM,28.9,21.0,72,30.13,10.0,ESE,13.8,18.4,N/A,,Scattered Clouds,110,2013-03-17 16:53:00
12:53 PM,32.0,21.9,66,30.07,10.0,ESE,15.0,-,N/A,,Partly Cloudy,120,2013-03-17 17:53:00
1:53 PM,34.0,23.0,64,30.04,10.0,SE,17.3,24.2,N/A,,Partly Cloudy,130,2013-03-17 18:53:00
2:53 PM,35.1,25.0,67,29.98,10.0,ESE,16.1,25.3,N/A,,Partly Cloudy,120,2013-03-17 19:53:00
3:53 PM,36.0,25.0,64,29.95,10.0,SE,19.6,26.5,N/A,,Clear,130,2013-03-17 20:53:00
4:53 PM,37.0,26.1,65,29.94,10.0,ESE,15.0,24.2,N/A,,Clear,120,2013-03-17 21:53:00
5:53 PM,36.0,26.1,67,29.93,10.0,ESE,13.8,23.0,N/A,,Mostly Cloudy,120,2013-03-17 22:53:00
6:31 PM,35.6,26.6,70,29.88,10.0,ESE,16.1,23.0,N/A,,Mostly Cloudy,120,2013-03-17 23:31:00
6:53 PM,34.0,26.1,73,29.90,10.0,ESE,15.0,21.9,N/A,,Mostly Cloudy,110,2013-03-17 23:53:00
7:53 PM,34.0,27.0,75,29.89,10.0,ESE,9.2,-,N/A,,Overcast,110,2013-03-18 00:53:00
8:53 PM,33.1,27.0,78,29.91,10.0,ESE,11.5,-,N/A,,Overcast,120,2013-03-18 01:53:00
9:28 PM,32.0,26.6,80,29.88,10.0,ESE,11.5,-,N/A,,Overcast,120,2013-03-18 02:28:00
9:53 PM,32.0,26.1,79,29.91,10.0,ESE,12.7,-,N/A,,Overcast,120,2013-03-18 02:53:00
10:28 PM,32.0,26.6,80,29.86,10.0,ESE,13.8,18.4,N/A,,Overcast,110,2013-03-18 03:28:00
10:53 PM,32.0,27.0,82,29.88,10.0,ESE,13.8,18.4,N/A,,Overcast,120,2013-03-18 03:53:00
11:53 PM,32.0,27.0,82,29.87,10.0,ESE,9.2,-,N/A,,Overcast,120,2013-03-18 04:53:00